Tracking 22455 objects as of 9-Mar-2021
HD Live streaming from Space Station
objects crossing your sky now

TITAN 3C TRANSTAGE DEB

Track TITAN 3C TRANSTAGE DEB now!


NORAD ID: 28833
Int'l Code: 1965-108CK
Perigee: 1,207.7 km
Apogee: 30,201.3 km
Inclination: 27.6 °
Period: 544.0 minutes
Semi major axis: 22075 km
RCS: 0.0934 m2 (small)
Launch date: December 21, 1965
Source: United States (US)
Launch site: AIR FORCE EASTERN TEST RANGE (AFETR)

Note: This is SATELLITE DEBRIS
aabbcc
Your satellite tracking list
Your tracking list is empty




NASA's NSSDC Master Catalog

Two Line Element Set (TLE):
1 28833U 65108CK  17287.94852297 +.00000011 +00000-0 +10000-3 0  9991
2 28833 027.6191 238.1181 6566916 218.4694 068.6761 02.64689872140280
Source of the keplerian elements: AFSPC